Hourly Weather Alhimovo

Today, 8 March, Monday

Time Temperature Precipitation Wind Pressure Humidity
00:00 -8°C° 0 mm 3 mps 746 mmHg 91%
01:00 -8°C° 0 mm 3 mps 747 mmHg 90%
02:00 -10°C° 0 mm 3 mps 747 mmHg 89%
03:00 -10°C° 0 mm 3 mps 748 mmHg 89%
04:00 -10°C° 0 mm 4 mps 749 mmHg 89%
05:00 -10°C° 0 mm 4 mps 749 mmHg 89%
06:00 -11°C° 0 mm 4 mps 750 mmHg 88%
07:00 -11°C° 0 mm 4 mps 750 mmHg 87%
08:00 -12°C° 0 mm 4 mps 751 mmHg 86%
09:00 -11°C° 0 mm 4 mps 752 mmHg 82%
10:00 -11°C° 0 mm 4 mps 752 mmHg 79%
11:00 -10°C° 0 mm 4 mps 753 mmHg 76%
12:00 -10°C° 0 mm 4 mps 754 mmHg 75%
13:00 -9°C° 0 mm 4 mps 754 mmHg 74%
14:00 -8°C° 0 mm 4 mps 755 mmHg 73%
15:00 -9°C° 0 mm 4 mps 755 mmHg 74%
16:00 -9°C° 0 mm 4 mps 756 mmHg 76%
17:00 -8°C° 0 mm 3 mps 756 mmHg 77%
18:00 -9°C° 0 mm 3 mps 757 mmHg 80%
19:00 -10°C° 0 mm 3 mps 757 mmHg 83%
20:00 -12°C° 0 mm 3 mps 758 mmHg 86%
21:00 -10°C° 0 mm 2 mps 758 mmHg 87%
22:00 -12°C° 0 mm 2 mps 758 mmHg 89%
23:00 -13°C° 0 mm 2 mps 759 mmHg 90%

Tomorrow, 9 March, Tuesday

Time Temperature Precipitation Wind Pressure Humidity
00:00 -13°C° 0 mm 2 mps 759 mmHg 90%
01:00 -13°C° 0 mm 2 mps 759 mmHg 90%
02:00 -14°C° 0 mm 2 mps 760 mmHg 91%
03:00 -12°C° 0 mm 1 mps 760 mmHg 91%
04:00 -12°C° 0 mm 1 mps 760 mmHg 91%
05:00 -12°C° 0 mm 1 mps 760 mmHg 92%
06:00 -12°C° 0 mm 1 mps 760 mmHg 90%
07:00 -11°C° 0 mm 1 mps 760 mmHg 89%
08:00 -11°C° 0 mm 0 mps 761 mmHg 88%
09:00 -9°C° 0 mm 0 mps 761 mmHg 82%
10:00 -8°C° 0 mm 0 mps 761 mmHg 77%
11:00 -6°C° 0 mm 0 mps 761 mmHg 72%
12:00 -6°C° 0 mm 1 mps 761 mmHg 72%
13:00 -4°C° 0 mm 1 mps 761 mmHg 73%
14:00 -4°C° 0 mm 1 mps 761 mmHg 73%
15:00 -6°C° 0.2 mm 2 mps 761 mmHg 79%
16:00 -7°C° 0.2 mm 2 mps 761 mmHg 85%
17:00 -8°C° 0.2 mm 3 mps 760 mmHg 91%
18:00 -9°C° 0.6 mm 3 mps 761 mmHg 92%
19:00 -10°C° 0.6 mm 4 mps 761 mmHg 92%
20:00 -11°C° 0.6 mm 4 mps 761 mmHg 93%
21:00 -11°C° 0.5 mm 4 mps 762 mmHg 93%
22:00 -12°C° 0.5 mm 4 mps 762 mmHg 92%
23:00 -12°C° 0.5 mm 4 mps 762 mmHg 92%

Day after tomorrow, 10 March, Wednesday

Time Temperature Precipitation Wind Pressure Humidity
00:00 -14°C° 0.2 mm 4 mps 763 mmHg 90%
01:00 -15°C° 0.2 mm 4 mps 763 mmHg 89%
02:00 -15°C° 0.2 mm 4 mps 763 mmHg 87%
03:00 -16°C° 0.1 mm 4 mps 763 mmHg 86%
04:00 -16°C° 0.1 mm 4 mps 764 mmHg 84%
05:00 -17°C° 0.1 mm 4 mps 764 mmHg 82%
06:00 -17°C° 0 mm 4 mps 765 mmHg 82%
07:00 -17°C° 0 mm 4 mps 765 mmHg 81%
08:00 -17°C° 0 mm 4 mps 766 mmHg 80%
09:00 -16°C° 0 mm 4 mps 766 mmHg 75%
10:00 -15°C° 0 mm 4 mps 766 mmHg 69%
11:00 -14°C° 0 mm 4 mps 767 mmHg 63%
12:00 -12°C° 0 mm 4 mps 767 mmHg 61%
13:00 -11°C° 0 mm 4 mps 767 mmHg 59%
14:00 -10°C° 0 mm 4 mps 767 mmHg 57%
15:00 -11°C° 0 mm 4 mps 767 mmHg 60%
16:00 -11°C° 0 mm 4 mps 766 mmHg 63%
17:00 -10°C° 0 mm 3 mps 766 mmHg 66%
18:00 -12°C° 0 mm 4 mps 766 mmHg 68%
19:00 -12°C° 0 mm 4 mps 767 mmHg 70%
20:00 -14°C° 0 mm 4 mps 767 mmHg 72%
21:00 -14°C° 0 mm 4 mps 767 mmHg 72%
22:00 -14°C° 0 mm 4 mps 767 mmHg 73%
23:00 -15°C° 0 mm 4 mps 767 mmHg 74%

11 March, Thursday

Time Temperature Precipitation Wind Pressure Humidity
00:00 -15°C° 0.2 mm 4 mps 766 mmHg 78%
01:00 -15°C° 0.2 mm 5 mps 766 mmHg 81%
02:00 -15°C° 0.2 mm 5 mps 766 mmHg 85%
03:00 -15°C° 0.6 mm 5 mps 766 mmHg 88%
04:00 -15°C° 0.6 mm 4 mps 765 mmHg 90%
05:00 -15°C° 0.6 mm 4 mps 765 mmHg 92%
06:00 -15°C° 0.2 mm 4 mps 765 mmHg 92%
07:00 -14°C° 0.2 mm 4 mps 765 mmHg 92%
08:00 -14°C° 0.2 mm 4 mps 765 mmHg 91%
09:00 -12°C° 0.1 mm 4 mps 764 mmHg 89%
10:00 -11°C° 0.1 mm 4 mps 764 mmHg 87%
11:00 -10°C° 0.1 mm 4 mps 763 mmHg 85%
12:00 -10°C° 0 mm 5 mps 763 mmHg 83%
13:00 -7°C° 0 mm 5 mps 762 mmHg 80%
14:00 -6°C° 0 mm 5 mps 762 mmHg 77%
15:00 -6°C° 0 mm 5 mps 761 mmHg 78%
16:00 -6°C° 0 mm 5 mps 760 mmHg 78%
17:00 -6°C° 0 mm 5 mps 759 mmHg 78%
18:00 -7°C° 0 mm 5 mps 759 mmHg 80%
19:00 -9°C° 0 mm 6 mps 758 mmHg 81%
20:00 -9°C° 0 mm 6 mps 758 mmHg 83%
21:00 -9°C° 0 mm 6 mps 757 mmHg 83%
22:00 -9°C° 0 mm 7 mps 756 mmHg 83%
23:00 -9°C° 0 mm 7 mps 755 mmHg 83%

12 March, Friday

Time Temperature Precipitation Wind Pressure Humidity
00:00 -9°C° 0 mm 7 mps 754 mmHg 84%
01:00 -9°C° 0 mm 7 mps 753 mmHg 84%
02:00 -9°C° 0 mm 7 mps 752 mmHg 84%
03:00 -9°C° 0.2 mm 7 mps 751 mmHg 86%
04:00 -9°C° 0.2 mm 7 mps 750 mmHg 88%
05:00 -10°C° 0.2 mm 8 mps 749 mmHg 90%
06:00 -10°C° 0.5 mm 8 mps 748 mmHg 90%
07:00 -8°C° 0.5 mm 8 mps 748 mmHg 90%
08:00 -8°C° 0.5 mm 8 mps 747 mmHg 91%
09:00 -7°C° 0.6 mm 7 mps 747 mmHg 91%
10:00 -7°C° 0.6 mm 7 mps 746 mmHg 92%
11:00 -6°C° 0.6 mm 7 mps 746 mmHg 92%
12:00 -4°C° 0.3 mm 6 mps 745 mmHg 93%
13:00 -3°C° 0.3 mm 6 mps 745 mmHg 93%
14:00 -2°C° 0.3 mm 5 mps 745 mmHg 94%
15:00 -1°C° 0.1 mm 5 mps 745 mmHg 95%
16:00 0°C° 0.1 mm 4 mps 745 mmHg 96%
17:00 0°C° 0.1 mm 4 mps 745 mmHg 97%
18:00 0°C° 0 mm 4 mps 745 mmHg 95%
19:00 0°C° 0 mm 4 mps 745 mmHg 93%
20:00 0°C° 0 mm 4 mps 746 mmHg 90%
21:00 -1°C° 0 mm 4 mps 746 mmHg 90%
22:00 -1°C° 0 mm 4 mps 746 mmHg 90%
23:00 -1°C° 0 mm 4 mps 746 mmHg 90%

13 March, Saturday

Time Temperature Precipitation Wind Pressure Humidity
00:00 -1°C° 0 mm 4 mps 746 mmHg 90%
01:00 -1°C° 0 mm 5 mps 746 mmHg 90%
02:00 -1°C° 0 mm 5 mps 746 mmHg 90%
03:00 -1°C° 0 mm 5 mps 747 mmHg 91%
04:00 -1°C° 0 mm 5 mps 747 mmHg 92%
05:00 -1°C° 0 mm 5 mps 747 mmHg 94%
06:00 -1°C° 0 mm 5 mps 747 mmHg 93%
07:00 0°C° 0 mm 5 mps 748 mmHg 92%
08:00 0°C° 0 mm 5 mps 748 mmHg 92%
09:00 0°C° 0 mm 5 mps 748 mmHg 91%
10:00 0°C° 0 mm 5 mps 748 mmHg 91%
11:00 0°C° 0 mm 5 mps 748 mmHg 91%
12:00 +1°C° 0 mm 5 mps 748 mmHg 89%
13:00 +1°C° 0 mm 5 mps 748 mmHg 88%
14:00 +2°C° 0 mm 5 mps 748 mmHg 87%
15:00 +2°C° 0 mm 5 mps 748 mmHg 87%
16:00 +2°C° 0 mm 5 mps 747 mmHg 87%
17:00 +1°C° 0 mm 5 mps 747 mmHg 87%
18:00 +1°C° 0.2 mm 5 mps 747 mmHg 90%
19:00 +1°C° 0.2 mm 5 mps 747 mmHg 93%
20:00 +1°C° 0.2 mm 5 mps 747 mmHg 96%
21:00 +1°C° 0.1 mm 4 mps 747 mmHg 96%
22:00 +1°C° 0.1 mm 4 mps 747 mmHg 96%
23:00 0°C° 0.1 mm 4 mps 747 mmHg 96%
Show more